Theta_e
313 313 313 313 313 313 312 313 313 313 313 313 314 314 315 315 314 306 299 306 311 321 324 309 305 303 301 298 300 301 291 288 293 296 299 304 302 307 309 305 308 310 314 317 316
312 313 312 312 312 312 312 312 312 313 313 314 314 314 314 314 304 302 311 319 324 328 310 304 300 298 296 296 298 295 288 292 298 300 299 301 300 303 304 304 304 306 313 316 315
312 313 313 313 313 312 312 312 312 312 313 313 313 313 313 312 301 307 325 323 329 330 304 302 300 296 291 295 296 295 291 295 299 301 300 300 301 304 303 300 302 304 308 313 312
312 312 313 313 312 312 312 312 312 312 312 311 312 313 314 306 294 306 333 326 332 314 301 303 302 295 290 290 294 290 297 298 299 301 300 299 303 302 302 304 307 308 310 311 312
312 312 312 312 312 312 311 311 311 311 311 311 311 313 306 296 298 310 331 328 316 307 304 304 298 292 289 290 291 290 293 296 298 299 299 301 300 301 302 305 307 308 308 310 310
312 312 311 312 312 312 311 311 311 311 312 312 312 313 302 286 298 317 316 314 307 305 307 305 302 298 292 292 290 293 294 295 296 295 296 297 299 299 302 306 306 307 307 307 311
312 311 311 311 312 312 312 312 313 313 313 312 313 311 301 291 306 317 309 304 306 308 307 308 306 298 296 293 294 294 290 293 293 295 293 296 294 295 300 304 303 304 304 305 309
313 312 311 311 312 313 313 313 314 314 314 313 314 306 294 304 305 306 308 308 309 309 310 308 303 297 294 294 293 290 287 284 290 295 296 294 289 297 300 298 299 302 302 304 306
313 312 311 311 312 312 313 313 314 315 317 315 304 300 297 314 310 309 307 306 308 308 306 310 300 295 294 288 285 285 282 284 289 293 294 293 289 296 299 298 298 299 300 302 304
313 312 311 311 311 312 312 313 314 313 314 312 309 298 303 304 311 309 306 306 305 303 301 299 293 290 287 285 280 283 284 286 286 292 291 291 290 294 297 297 297 297 299 299 302
313 312 311 311 311 311 307 305 300 300 303 301 301 300 304 312 314 304 305 303 303 298 291 293 288 285 288 289 291 289 287 287 291 295 290 290 291 293 295 294 295 295 297 298 299
313 312 312 311 311 310 304 299 304 303 297 305 306 304 307 310 305 308 304 296 295 291 293 289 286 292 293 293 291 290 287 287 291 294 290 290 290 293 293 294 295 296 297 297 296
312 312 312 311 310 304 302 305 309 305 295 300 305 304 305 307 303 305 304 300 294 290 290 287 291 296 294 292 290 289 287 287 288 292 291 289 289 290 294 294 296 297 297 297 298
311 311 311 310 303 302 301 308 307 305 290 296 301 304 306 305 300 310 307 301 295 291 291 289 295 293 292 290 291 286 294 295 293 288 282 289 282 289 291 292 294 296 295 296 296
311 311 310 309 298 298 306 305 306 305 281 301 300 308 304 298 299 300 305 300 294 293 292 290 291 290 290 292 295 291 297 294 293 287 282 285 280 288 288 289 292 294 296 297 299
310 310 310 305 301 302 307 306 304 291 283 298 299 297 295 296 298 300 300 302 300 293 293 293 296 294 293 295 297 298 293 291 289 284 279 285 284 286 289 290 292 294 297 300 300
310 309 307 305 297 303 303 304 290 284 298 295 295 297 294 293 295 296 294 292 290 285 286 291 292 294 299 293 295 292 285 278 277 277 280 287 284 285 291 294 294 294 295 297 299
308 306 306 305 303 303 306 297 284 292 294 299 296 296 293 293 293 295 292 289 293 289 285 284 283 293 299 294 290 288 287 279 274 276 280 287 280 286 293 296 298 298 297 298 297
305 301 301 307 306 303 299 288 287 295 297 295 295 291 289 292 291 290 289 289 293 292 285 284 286 296 298 297 294 289 284 288 281 281 277 281 286 292 295 296 298 298 297 297 297
298 296 299 309 306 304 294 289 293 300 298 297 289 293 287 289 288 287 288 295 294 296 293 289 283 293 296 297 295 290 292 281 281 277 275 278 282 284 290 293 295 297 297 297 298
294 293 301 310 308 299 289 292 296 301 299 295 291 289 289 289 290 290 290 295 297 294 293 291 286 287 291 289 286 286 284 284 284 283 278 273 278 291 293 295 294 296 298 298 298
292 290 302 306 297 295 293 297 298 299 300 298 296 292 290 290 290 290 291 294 297 295 289 292 287 283 286 291 293 289 286 285 276 276 283 279 280 294 294 294 297 296 299 302 303
291 290 301 302 290 289 294 296 299 298 298 296 294 294 292 290 286 291 292 297 297 295 292 293 285 281 282 284 287 286 289 287 286 284 280 278 280 293 293 293 295 296 297 298 300
291 288 293 296 294 290 290 292 293 299 298 297 294 294 290 287 290 287 289 294 296 295 303 296 285 283 279 282 283 281 286 288 285 279 280 282 284 289 291 293 294 295 297 298 298
297 294 291 285 290 292 293 293 291 292 297 295 293 292 288 283 286 287 290 291 294 297 292 289 283 284 285 287 287 286 287 287 284 285 281 284 285 287 292 292 294 296 298 300 300
291 295 295 293 294 292 292 292 292 293 292 292 290 292 292 285 287 284 287 288 287 291 286 287 282 284 283 287 287 285 287 287 287 287 286 287 286 292 295 295 296 296 298 298 299
294 299 295 293 292 291 290 293 293 294 294 296 294 292 290 291 292 292 291 291 290 288 285 284 282 280 278 285 285 280 285 288 289 291 291 286 291 295 294 295 296 296 296 298 300
Wind_Speed
16 16 15 14 13 13 13 13 13 13 13 13 12 12 12 13 14 2 7 11 8 13 1 2 2 3 3 1 2 4 4 4 6 6 10 10 3 3 5 6 10 5 6 7 9
16 16 15 15 14 13 12 12 12 13 13 13 13 12 12 12 3 7 13 10 14 2 2 1 2 3 1 2 2 5 5 9 6 6 7 8 4 6 8 11 11 12 6 3 7
17 15 15 15 14 13 13 12 12 12 12 12 12 12 12 8 4 6 6 14 10 8 1 1 1 1 1 2 3 4 5 5 5 8 8 9 11 6 5 15 8 11 3 6 5
18 17 15 15 15 14 13 12 12 11 10 10 10 11 12 0 3 2 4 16 8 6 1 3 2 4 3 5 5 3 7 5 7 7 6 8 11 15 8 16 11 13 5 5 7
17 18 16 15 13 13 12 11 11 11 10 10 8 8 4 2 9 3 10 11 6 7 5 4 4 4 4 3 0 4 4 7 10 11 11 12 15 17 24 11 12 17 9 9 10
17 17 17 15 13 12 11 10 10 9 9 8 7 5 0 3 4 4 8 6 3 4 5 5 5 5 3 4 4 5 5 6 6 7 6 6 13 6 9 9 14 16 17 6 10
18 17 16 15 13 12 11 10 9 9 8 6 5 2 1 14 3 4 8 6 4 6 5 5 5 2 4 4 3 3 4 7 3 2 4 4 9 12 8 4 7 9 10 11 10
18 17 17 15 14 13 12 11 9 9 8 5 5 2 8 5 1 3 4 4 6 6 4 6 5 2 2 2 8 5 4 3 5 5 7 4 11 14 9 6 10 12 11 11 13
19 18 18 16 15 15 14 14 11 6 2 8 3 2 10 4 2 8 7 7 1 3 6 9 2 1 6 4 6 5 3 3 6 4 4 6 9 9 10 5 12 8 10 11 12
20 18 18 17 16 15 16 13 3 5 4 5 4 3 6 2 3 6 8 10 5 3 4 3 5 2 4 5 4 4 4 4 3 8 5 10 15 10 8 3 11 12 11 9 14
23 21 18 18 17 12 8 2 3 1 2 8 6 5 7 4 4 3 6 8 4 3 3 1 2 6 10 9 8 5 4 9 13 15 4 12 17 10 8 6 9 11 12 12 13
25 24 23 18 17 14 2 1 4 2 10 16 17 12 13 5 4 5 6 6 5 5 3 3 7 11 5 5 7 7 10 12 8 12 4 11 16 10 6 7 9 9 13 13 6
24 23 23 23 21 3 3 6 1 3 3 7 6 6 7 11 8 8 9 5 5 6 7 7 11 3 4 6 6 8 5 4 5 6 5 5 17 12 10 5 7 9 10 8 10
26 24 22 22 2 1 4 1 6 4 4 7 4 5 6 6 5 11 10 7 3 11 5 6 10 11 11 8 7 5 7 6 5 2 3 2 18 13 10 11 6 10 7 9 9
28 25 21 8 5 3 2 5 4 4 4 2 2 3 6 8 2 2 5 4 9 8 8 12 5 6 6 12 5 8 6 6 4 4 2 5 4 15 3 11 10 8 11 10 10
30 26 15 1 2 8 7 6 4 5 5 2 4 5 5 2 2 1 5 2 3 5 6 14 2 6 9 6 4 2 1 3 2 1 6 7 11 21 10 12 10 7 10 12 9
30 27 9 3 4 3 5 3 4 3 5 5 3 1 3 4 2 1 3 4 8 4 7 8 8 4 3 4 2 3 5 6 6 2 12 4 6 10 15 16 14 15 12 11 8
32 29 7 5 2 5 2 3 3 2 4 2 2 2 3 2 1 2 1 3 2 4 2 4 6 3 2 3 5 2 6 6 9 8 14 4 8 9 7 12 16 13 11 7 8
29 4 3 4 6 1 5 2 4 2 4 6 6 2 1 1 0 4 3 2 2 1 2 1 4 2 2 4 6 2 4 3 2 2 4 5 8 8 9 6 17 11 9 7 8
6 5 5 1 5 4 4 4 3 3 6 3 3 2 2 2 1 2 2 2 3 3 3 4 2 2 1 3 4 5 4 1 2 4 6 6 6 10 8 11 15 15 12 10 9
3 5 4 4 2 5 2 4 3 7 6 3 2 4 3 1 1 2 5 3 4 1 3 6 5 4 2 4 6 1 1 2 3 3 4 4 6 5 8 3 12 12 10 8 8
4 4 4 4 2 1 1 4 8 13 5 4 3 3 5 5 4 5 6 5 7 2 2 4 5 5 7 3 2 4 6 5 5 4 5 4 9 12 7 5 7 16 14 11 5
4 4 6 2 2 4 6 7 6 7 9 5 4 4 4 2 4 3 2 3 6 5 3 4 2 1 6 4 5 3 4 5 2 2 9 6 9 6 7 6 7 11 14 8 9
3 5 6 5 3 4 6 5 7 13 10 8 7 3 5 3 4 4 2 4 5 6 2 5 4 7 8 7 5 3 5 6 7 4 6 13 20 18 13 10 10 9 10 12 7
3 2 1 5 2 7 5 4 11 7 6 7 4 6 7 5 8 9 4 5 4 2 2 3 3 4 5 6 5 7 11 12 10 15 11 19 18 4 7 8 7 9 9 10 10
2 3 4 4 8 6 2 3 8 5 2 4 4 11 10 7 10 16 11 5 6 3 3 1 2 2 4 6 9 13 12 12 14 17 17 16 15 2 6 6 9 10 11 8 7
2 2 1 3 5 4 3 3 3 12 7 7 7 13 12 14 14 15 12 8 8 7 5 4 4 1 6 1 6 8 5 5 6 5 3 6 5 4 8 10 8 9 12 10 7
Wind_Direction
331 325 322 318 315 314 313 313 316 315 314 313 314 314 317 318 315 307 236 219 188 233 242 303 184 183 103 182 183 97 88 217 213 213 265 303 320 28 298 265 332 311 216 203 151
334 328 323 319 317 314 313 314 313 313 312 313 314 317 322 324 278 240 246 225 217 178 172 235 335 114 105 184 189 142 160 214 200 221 256 285 283 323 311 305 297 300 330 53 159
339 333 326 321 317 313 311 311 309 311 313 313 315 319 322 326 285 249 196 208 205 181 265 135 127 76 7 99 223 193 207 208 227 233 247 272 289 272 279 286 246 277 12 311 1
341 339 334 326 320 315 312 311 312 311 310 311 314 320 314 246 140 286 132 174 167 141 135 153 116 119 182 202 223 233 245 236 279 255 271 264 265 271 230 260 269 276 216 224 224
341 341 336 330 323 317 312 309 308 309 310 310 313 320 349 342 254 285 129 148 130 138 181 158 145 162 201 226 183 218 262 273 260 266 254 258 263 262 264 263 273 275 268 207 213
344 341 339 333 328 321 311 305 303 301 298 300 299 320 324 289 241 179 133 128 162 178 173 169 186 196 260 247 156 201 245 256 260 250 246 233 260 238 274 246 246 251 268 234 218
342 342 339 337 328 321 309 298 285 285 286 279 265 250 26 237 30 162 153 182 196 187 183 212 199 148 148 291 190 256 300 329 281 253 266 215 274 256 271 219 247 266 264 273 207
338 338 341 335 330 318 307 294 284 280 276 230 215 233 247 241 303 181 177 283 231 216 273 253 208 150 180 325 2 0 53 345 286 332 272 179 275 294 265 244 221 239 250 257 268
337 335 337 336 330 320 311 299 284 272 180 166 145 191 269 308 213 217 174 234 331 219 236 260 103 119 38 66 359 350 243 246 307 225 244 200 272 266 305 320 291 265 232 245 254
334 333 333 332 329 323 317 307 128 117 142 192 253 333 272 202 228 182 191 214 236 304 350 125 56 92 48 79 243 266 293 280 245 284 200 273 269 256 271 276 279 289 283 246 240
331 331 331 326 324 324 340 92 22 30 236 210 206 250 286 278 304 220 162 145 197 150 168 16 109 229 229 208 226 245 251 259 275 276 258 263 263 267 259 267 272 278 283 284 233
329 327 324 321 319 316 162 202 213 266 297 228 241 230 253 48 326 297 117 156 138 219 144 14 248 244 231 216 223 240 257 275 289 278 240 262 266 271 233 226 242 265 287 275 247
326 324 319 318 321 125 185 237 288 241 290 293 199 209 221 157 214 250 162 162 170 202 207 186 237 226 195 271 261 253 231 238 239 289 306 299 286 301 290 233 258 268 258 279 263
324 323 322 319 275 301 249 206 336 170 30 275 223 253 149 157 238 203 178 153 190 206 182 228 243 218 249 249 199 247 195 205 244 52 247 144 288 275 279 277 232 270 282 280 288
323 324 323 304 312 204 227 343 320 61 351 159 175 141 147 160 236 198 149 100 197 201 133 234 223 192 213 244 159 235 185 223 215 227 201 200 270 270 285 286 274 260 269 250 246
324 324 335 93 230 251 315 316 71 47 256 9 138 164 129 252 274 55 165 101 218 206 232 244 243 174 220 248 182 76 246 276 329 155 253 240 220 276 257 254 271 228 245 256 261
325 321 314 208 238 331 305 45 47 167 315 356 34 29 191 222 285 45 214 191 210 191 233 256 246 218 174 161 46 90 56 321 310 297 269 348 297 269 277 272 264 270 260 260 261
324 314 210 225 239 338 41 64 197 268 277 41 340 296 211 28 21 303 59 350 312 160 132 199 305 162 75 168 198 83 150 174 257 264 280 4 256 263 297 298 281 272 258 263 289
318 328 279 263 200 198 76 124 228 243 15 326 306 255 247 138 7 28 344 257 175 78 162 214 282 316 148 152 142 166 194 218 272 17 300 227 280 296 269 338 360 345 352 335 322
313 341 286 356 161 65 76 250 260 262 334 315 269 286 239 294 9 23 277 253 158 190 151 228 287 284 222 134 75 146 161 44 356 288 267 279 269 259 315 343 334 323 326 338 347
7 6 280 46 41 53 188 254 275 323 21 304 358 297 286 204 184 228 224 307 92 336 211 171 165 242 219 183 190 31 297 86 153 177 270 302 261 235 242 313 307 301 316 315 3
358 1 306 346 36 75 214 334 334 331 339 315 339 271 229 220 227 221 220 195 17 19 231 210 170 206 219 323 216 163 196 155 127 267 242 249 263 265 296 322 327 304 296 289 259
357 285 306 41 19 346 329 341 319 339 338 2 313 348 10 338 299 259 27 352 49 8 313 196 234 326 333 352 357 199 195 211 124 113 226 246 267 316 327 349 310 303 302 292 306
24 348 328 23 61 46 359 307 338 339 293 344 319 16 342 279 213 284 301 294 25 332 18 159 175 182 233 221 174 225 233 221 196 209 247 233 272 280 302 322 325 330 318 307 286
16 14 94 320 346 330 317 289 304 299 327 20 294 13 337 276 304 267 247 304 253 283 81 105 223 198 249 250 224 232 247 251 219 239 232 270 258 289 302 300 301 307 338 338 344
54 349 0 297 294 292 282 221 259 281 305 286 254 304 314 276 270 285 278 202 232 215 133 17 256 360 268 249 253 260 258 258 256 264 261 264 270 243 289 309 320 322 338 333 335
328 334 245 294 305 280 247 234 316 323 278 250 314 308 295 285 280 273 244 229 225 196 197 170 162 103 268 249 308 286 240 255 285 211 227 255 212 298 302 302 316 314 318 291 296